Theta_e
311 311 311 311 311 311 311 311 312 313 313 313 313 314 316 316 315 314 315 316 317 316 316 316 317 316 318 320 319 319 320 322 324 323 322 318 318 317 318 317 317 317 317 316 316
311 311 311 311 311 311 311 310 310 310 311 311 312 313 313 315 316 316 316 315 316 316 315 317 318 318 319 321 321 321 324 325 321 320 320 319 318 318 316 316 317 316 315 315 314
312 313 313 313 313 313 313 312 312 311 310 310 310 311 312 313 315 317 317 317 315 315 315 317 317 319 320 321 321 320 321 321 320 320 318 318 318 318 316 315 317 317 316 315 313
313 313 313 313 314 314 314 314 313 313 312 311 310 310 310 313 319 318 315 317 315 315 314 316 317 319 319 322 321 320 320 320 320 318 317 317 318 318 317 317 318 318 318 318 316
314 314 314 314 314 314 314 314 314 314 314 312 311 310 310 314 315 315 316 315 314 314 314 315 317 319 321 321 321 319 319 319 319 317 316 316 316 315 317 317 317 317 317 317 317
314 314 314 314 314 315 315 315 315 314 314 314 312 310 309 315 315 315 315 314 314 314 313 314 317 319 319 319 318 318 318 317 318 317 316 315 316 316 316 317 317 318 317 316 316
311 312 313 314 314 314 315 315 315 315 315 314 313 310 310 313 314 314 313 313 314 313 313 314 315 316 319 319 319 317 315 316 317 317 316 317 314 314 316 317 317 317 317 316 315
307 307 307 307 308 310 312 313 314 314 315 314 313 310 312 314 314 315 314 313 314 313 312 314 313 315 317 317 317 316 316 317 319 317 315 315 315 316 318 317 317 316 316 316 316
312 311 310 309 307 307 307 308 311 312 313 313 312 311 316 315 315 314 313 313 313 313 312 312 312 316 316 316 316 317 317 317 319 318 314 313 315 318 318 317 316 316 315 316 316
310 310 310 311 310 308 308 307 307 308 311 311 312 316 314 315 314 313 314 313 313 312 311 312 314 315 315 315 316 318 317 317 317 316 315 314 313 314 317 316 316 317 317 316 316
319 316 312 309 308 310 309 307 312 314 312 313 316 315 316 315 314 313 314 313 312 313 313 314 314 315 315 316 316 317 317 317 317 317 315 314 315 315 316 316 317 317 317 317 317
322 322 321 319 309 308 307 308 309 309 310 308 310 312 315 315 315 314 313 312 312 313 313 315 316 316 316 316 316 316 316 316 316 315 314 314 315 315 314 315 316 316 316 316 316
322 322 322 322 319 308 307 307 307 307 313 311 310 311 311 312 314 314 313 312 313 314 314 314 316 316 316 316 315 315 315 315 315 315 312 313 312 313 313 314 315 315 315 315 315
322 322 321 322 317 311 310 309 308 310 310 312 313 312 312 312 311 313 314 313 313 314 314 314 315 315 314 314 314 314 314 315 315 314 315 313 314 314 314 313 312 314 315 316 315
322 322 321 320 319 314 310 308 310 307 312 313 309 310 313 312 310 311 311 312 313 313 314 314 314 314 314 314 314 315 312 313 314 315 315 315 314 313 313 312 312 311 316 316 314
323 322 321 320 319 319 309 309 310 310 309 312 311 312 313 312 311 308 309 309 310 312 311 312 312 312 314 310 312 310 312 312 312 311 313 313 314 313 312 312 313 311 315 314 313
324 323 322 321 318 318 315 309 310 308 312 314 314 312 313 314 313 309 310 309 310 312 311 313 312 312 310 312 309 311 314 315 316 313 315 312 313 314 313 311 310 310 314 313 313
323 322 321 321 318 317 311 311 310 315 315 313 313 314 314 313 314 311 312 311 310 311 313 316 317 313 309 312 314 310 313 315 315 313 315 314 313 313 313 312 313 313 314 313 312
321 321 320 323 318 317 309 310 312 318 316 314 313 312 312 312 313 313 311 312 312 310 313 313 313 308 309 309 312 312 311 313 314 307 311 313 312 312 311 310 310 311 312 311 311
316 317 317 319 319 314 308 314 310 314 313 310 311 311 312 312 313 313 313 313 313 312 312 313 314 310 305 306 307 308 309 312 312 310 310 312 310 313 314 313 309 309 309 311 311
312 316 316 317 318 312 310 310 314 312 312 313 315 312 310 308 310 311 312 312 313 314 312 312 313 310 305 306 309 306 308 308 310 313 312 312 313 309 314 313 311 308 311 312 311
310 315 316 316 313 311 313 311 313 314 313 312 309 310 312 311 309 308 309 309 310 312 312 311 313 314 312 310 306 308 310 309 311 312 310 312 315 310 310 312 310 309 312 311 311
310 313 314 315 316 314 307 311 312 313 313 314 313 311 310 309 310 311 311 311 311 311 311 310 312 314 313 310 304 307 308 310 311 311 313 314 313 311 312 311 309 308 311 311 310
308 312 311 311 314 315 316 313 313 312 312 313 313 312 311 313 311 313 312 311 311 311 310 311 311 312 314 312 311 311 309 308 309 311 312 312 312 312 311 311 311 312 312 312 312
304 308 310 310 308 311 312 314 315 314 312 313 312 313 312 313 313 311 310 311 311 310 309 308 311 311 311 312 311 310 310 310 309 309 310 310 310 310 311 311 311 312 312 311 311
301 305 303 303 304 307 308 309 312 313 313 313 313 314 313 313 314 316 313 313 313 309 310 309 310 309 310 309 309 310 309 310 309 310 310 310 309 309 309 310 310 309 310 310 311
298 299 298 300 303 304 306 308 309 309 309 311 313 314 314 314 312 312 313 314 314 313 310 308 309 310 312 310 310 311 310 310 310 310 310 310 310 310 310 310 310 311 311 311 312
Wind_Speed
7 7 8 8 9 9 10 10 9 8 8 9 8 7 8 10 11 12 12 10 7 7 6 4 3 1 3 5 8 3 3 5 8 1 0 7 5 7 8 5 11 12 11 8 9
10 10 10 10 10 10 10 10 10 11 10 10 9 9 9 9 12 20 15 12 11 9 7 5 2 4 5 5 4 5 3 5 3 6 3 8 10 7 3 11 13 15 17 18 17
12 12 12 13 13 12 12 11 11 11 12 11 11 11 10 9 12 10 8 18 14 12 9 7 8 6 9 10 8 6 5 1 4 4 4 7 10 14 8 8 16 21 25 25 24
14 14 15 15 15 15 15 15 15 14 13 13 13 12 10 7 5 3 6 9 17 14 11 8 4 4 5 8 15 5 16 16 4 3 3 4 5 10 23 22 5 13 20 27 29
17 16 16 17 18 18 18 18 17 16 16 16 15 14 11 7 15 19 17 11 15 15 13 11 10 12 8 8 9 8 11 14 11 9 11 12 16 10 23 25 27 25 20 20 27
20 20 20 18 19 19 20 20 20 19 18 18 17 15 11 11 16 16 15 13 16 15 14 14 8 10 9 10 8 4 11 17 12 16 11 7 8 11 17 17 27 27 29 27 29
23 24 24 23 23 22 21 21 22 22 21 20 19 16 14 24 19 19 16 16 17 16 15 13 16 10 3 7 7 6 7 10 16 18 5 9 9 15 39 18 14 20 31 32 31
22 23 25 25 25 26 25 23 23 22 22 21 19 13 11 18 21 23 21 18 17 18 17 17 13 11 6 5 4 4 5 4 3 14 9 10 14 12 21 24 29 23 23 28 33
22 23 24 24 25 26 26 25 25 24 23 21 15 10 8 14 16 18 17 12 13 14 15 15 10 7 5 3 5 9 7 10 8 14 8 10 10 3 5 11 14 20 22 26 33
19 21 23 24 24 26 26 24 25 24 22 15 12 6 17 11 13 11 13 15 7 9 6 8 8 4 4 6 8 7 10 9 10 8 8 7 17 14 19 10 19 28 29 32 36
17 19 20 21 21 21 25 23 9 7 8 11 5 9 4 13 11 10 12 16 9 8 7 13 5 12 20 16 18 13 15 16 20 8 9 15 17 18 24 19 23 31 34 34 38
20 22 23 24 21 16 14 9 11 11 13 22 28 30 26 23 9 16 15 14 11 11 11 4 16 19 9 11 9 8 12 17 16 8 9 11 13 12 10 20 27 30 32 38 36
20 22 24 22 23 15 11 12 12 14 9 12 30 24 28 29 16 22 26 17 8 8 14 19 8 18 11 11 12 18 13 19 17 12 5 4 7 12 12 27 34 37 38 40 37
21 21 25 24 10 18 11 13 9 9 6 5 6 5 11 9 7 16 26 14 8 14 11 17 19 18 15 15 9 21 9 10 11 7 9 9 7 8 7 9 10 26 34 40 30
23 21 23 23 19 12 13 9 4 5 8 3 4 3 5 9 2 4 19 12 13 7 5 7 4 6 13 20 10 15 5 4 4 6 6 7 7 7 11 9 12 11 30 38 17
23 22 21 22 18 15 11 4 2 3 10 3 6 6 4 7 2 2 2 3 3 5 11 17 0 3 4 3 1 4 1 4 3 2 8 12 12 8 8 9 6 8 25 30 19
23 25 25 22 9 12 9 2 4 8 3 6 4 6 4 6 6 7 6 6 6 3 8 6 19 4 5 2 1 3 4 3 3 2 11 12 13 17 5 8 10 11 31 11 13
20 15 21 25 22 17 6 3 10 5 19 1 4 7 6 7 7 9 5 6 13 8 4 6 6 17 9 15 6 8 9 6 7 5 17 5 8 6 9 14 24 28 36 15 16
19 19 24 24 27 24 18 3 11 4 5 8 14 6 7 7 7 7 9 7 8 20 10 7 8 5 5 2 8 5 7 3 3 1 4 11 11 6 7 11 11 21 13 16 16
23 23 29 22 24 26 4 11 10 11 6 4 10 9 13 11 10 9 9 7 10 15 19 4 9 6 2 4 3 3 1 2 2 2 8 21 10 15 7 17 11 8 10 17 16
23 11 18 16 19 15 6 12 13 20 17 8 15 16 17 17 15 14 14 12 7 4 18 5 6 3 7 9 10 3 4 5 2 5 7 14 12 3 5 6 9 10 14 14 11
15 5 17 16 11 7 10 6 11 17 20 11 6 13 24 24 20 11 13 8 25 6 4 4 1 5 14 4 1 8 11 11 9 11 4 6 26 7 4 4 8 7 13 13 12
9 16 17 24 10 11 4 10 15 16 18 9 11 11 13 19 13 17 22 30 37 9 4 5 2 4 12 11 3 6 7 12 11 8 16 18 23 8 21 19 12 11 14 16 15
6 4 10 22 32 21 22 15 19 26 25 31 11 13 8 14 15 11 12 13 22 24 2 3 10 12 16 15 7 9 14 13 15 11 25 22 31 34 28 23 23 33 31 20 27
8 5 11 3 8 15 22 22 30 25 29 20 11 27 19 14 19 17 23 26 21 23 7 5 10 18 27 31 31 30 29 27 13 21 22 27 25 28 34 18 24 31 29 17 28
7 5 6 6 11 9 7 12 24 27 24 21 28 23 27 26 26 22 19 18 18 5 18 14 9 16 22 27 28 29 28 26 33 33 29 30 31 35 33 42 34 36 42 26 35
12 8 7 8 9 10 13 6 6 13 14 30 29 24 28 29 37 43 43 37 22 13 11 7 8 8 14 22 23 19 32 36 34 31 35 30 41 40 29 33 32 42 41 34 34
Wind_Direction
324 329 335 341 346 349 349 349 351 351 353 349 349 336 318 289 283 279 267 263 274 261 274 283 303 273 192 226 235 250 278 267 269 301 218 122 203 197 227 216 198 209 226 241 225
321 325 330 334 338 340 342 343 343 341 338 334 329 326 316 306 290 272 266 255 255 250 256 265 301 235 232 228 218 221 230 259 25 353 287 172 217 201 217 228 227 226 232 236 235
311 315 320 323 325 327 328 330 332 334 332 330 325 320 313 310 301 275 278 248 243 237 242 238 237 231 241 240 212 219 230 216 314 272 298 287 222 242 192 250 226 227 226 239 235
305 309 313 316 317 317 320 322 323 324 324 322 321 317 309 297 270 276 306 255 230 230 229 229 209 211 236 231 237 262 248 262 294 286 259 247 275 252 230 235 264 239 230 237 232
301 303 306 309 311 312 315 315 316 317 317 316 314 311 304 267 254 274 283 267 228 227 224 211 222 234 252 271 246 221 267 280 263 255 254 258 260 255 259 252 257 256 252 241 236
295 297 297 299 301 305 309 310 311 311 312 310 308 303 285 250 267 267 270 256 236 229 223 213 212 248 289 258 267 358 291 286 273 231 230 230 258 238 259 259 246 241 246 239 241
293 293 293 296 297 296 297 301 304 307 308 309 305 295 267 262 272 272 269 255 241 235 224 232 226 234 313 260 278 287 301 267 243 229 234 219 273 231 252 238 233 236 239 245 242
299 299 298 297 294 294 295 297 298 301 302 301 297 282 254 267 261 257 257 249 237 233 232 228 237 240 222 294 270 227 227 278 230 183 165 147 270 228 257 234 232 240 241 241 244
308 307 304 303 303 299 295 295 296 298 296 292 282 247 252 252 247 252 246 239 232 231 232 238 219 223 190 205 277 223 252 236 263 180 136 178 255 264 187 203 220 237 247 252 254
320 319 318 315 310 306 304 304 303 296 285 271 235 247 241 239 245 243 228 209 205 208 211 196 203 214 212 197 226 222 231 248 251 195 186 205 251 266 250 236 255 263 259 253 251
329 328 328 332 322 319 313 320 332 296 258 233 260 216 200 236 249 238 217 194 187 197 200 189 184 215 221 214 231 256 267 270 270 257 177 231 240 252 262 253 256 265 264 261 261
329 331 332 340 339 323 311 304 275 281 298 268 266 259 257 252 228 226 208 186 186 211 209 218 224 229 244 252 263 272 271 266 277 294 211 249 253 254 264 268 259 258 268 266 265
319 324 327 339 340 329 324 294 293 287 251 251 256 241 240 241 237 228 204 196 197 214 208 221 194 214 228 249 248 248 245 259 264 285 221 319 268 254 252 252 259 263 261 266 264
309 316 319 332 344 335 326 321 305 303 271 228 192 214 221 214 265 233 215 210 223 222 218 253 244 245 255 248 213 263 231 257 266 278 256 161 282 222 226 230 228 246 262 269 267
298 305 308 317 323 330 316 315 301 317 282 97 163 172 178 197 1 188 190 215 234 197 191 220 201 193 228 240 226 265 171 220 268 261 302 252 281 227 202 233 243 238 253 266 275
283 288 290 297 308 318 329 291 269 245 246 194 142 174 170 198 212 30 236 216 327 282 261 261 78 275 249 71 96 129 115 218 233 211 255 207 214 241 203 212 223 232 251 262 254
274 271 268 272 267 285 320 213 262 224 219 183 214 166 213 193 197 186 175 197 198 182 221 218 236 171 141 177 165 179 143 279 287 191 252 187 221 239 182 177 191 212 244 203 209
268 279 272 264 251 262 204 82 245 258 225 308 160 183 203 178 229 190 214 227 222 244 295 210 267 182 178 208 174 187 179 173 237 219 274 229 255 247 214 231 217 215 250 235 213
274 268 260 257 240 238 140 175 221 248 289 308 308 266 236 204 224 169 223 257 209 194 209 213 245 27 146 141 159 183 211 198 249 130 307 240 262 305 254 238 218 226 198 197 219
286 286 279 274 242 210 138 235 243 229 332 16 265 297 285 253 193 191 193 227 231 199 216 271 268 177 120 48 287 201 200 123 219 256 241 275 282 273 197 237 219 225 219 233 246
280 269 271 263 225 191 205 214 240 246 242 251 241 270 278 287 288 274 244 251 204 232 199 220 215 226 126 197 184 155 237 232 246 192 230 271 271 303 161 149 196 222 230 245 223
265 248 245 218 187 217 220 214 235 256 241 249 239 252 250 262 271 285 286 294 321 352 197 206 241 248 233 181 233 216 224 185 221 237 230 235 264 153 120 138 149 191 200 201 229
237 256 227 223 228 227 240 239 240 246 243 205 230 224 242 247 256 251 262 265 285 283 293 342 356 324 302 288 196 201 211 230 244 258 243 244 259 189 255 265 233 185 222 233 236
254 257 205 224 229 232 237 230 237 240 252 248 248 229 231 239 237 257 244 252 248 257 309 175 226 221 238 241 261 269 238 235 226 241 248 246 258 274 266 269 277 275 277 262 257
218 249 249 228 260 279 261 250 246 245 231 232 224 236 225 242 240 228 240 252 255 251 149 188 224 225 235 244 253 256 263 271 262 243 245 266 259 264 270 267 263 271 272 257 283
263 286 323 300 289 277 277 254 271 257 250 234 231 233 226 230 231 242 228 233 237 240 216 179 227 215 231 238 247 255 258 261 254 253 254 254 268 255 269 277 274 273 269 277 276
260 268 321 253 275 285 264 272 284 301 289 277 265 251 235 234 236 238 248 253 259 234 217 193 211 209 235 230 241 248 240 246 253 248 243 247 245 259 262 259 263 269 277 276 270